If you wish to contribute or participate in the discussions about articles you are invited to join SKYbrary as a registered user

 Actions

Anatom Airport

From SKYbrary Wiki

NVVA
Airport
ICAO: NVVA – IATA: AUY
Summary
Name Anatom Airport
Region Asia and Pacific
Territory Vanuatu VU.gif
Location Inyeug, Tafea province
Serving Aneityum
Elevation 2.134 m <br />7 ft2.134 m <br />
Coordinates 20° 14' 57.01" S, 169° 46' 17.00" E
Runways
Designator Length Width Surface ROPS


METAR
Observation NVVA 270900Z VRB02KT 9999 SCT020 18/17 Q1015
Station Anelghowhat Airport
Date/Time 27 September 2021 09:00:00
Wind direction °
Wind speed 02 kts
Lowest cloud amount scattered clouds
Temperature 18°C
Dew point 17°C
Humidity 93%
QNH 1015 hPa
Weather condition n/a

Anatom Airport, also known as Aneityum Airport, is an airfield serving the island of Aneityum, in the Taféa province in Vanuatu. The airfield is actually located on the smaller Inyeug island.

Climatology

Tropical Rainforest climate (Köppen climate classification Af)

Maps

Terrain

Loading map...

Airport Layout

Loading map...


Accidents & Serious Incidents at or in vicinity of NVVA

None on SKYbrary